Temp
23 22 21 21 20 20 20 20 20 21 21 20 20 20 20 20 19 19 19 19 18 18 18 18 18 17 17 18 18 17 17 17 17 17 17 16 16 16 16 15 15 15 15
23 23 21 21 20 19 19 19 20 21 21 20 20 20 20 19 19 19 19 19 19 18 18 18 18 18 17 17 17 17 17 17 17 16 17 16 16 15 15 15 15 15 15
23 23 21 21 20 20 19 19 20 20 20 20 19 20 19 19 19 19 19 19 19 18 18 18 18 18 17 17 17 16 17 17 16 16 16 16 15 15 15 14 14 14 14
23 23 22 21 20 20 20 19 20 20 20 20 20 19 19 19 19 19 19 19 19 18 18 18 18 17 17 17 17 16 16 16 16 16 16 16 15 15 15 14 14 14 14
24 23 23 22 21 20 20 20 20 20 20 20 20 19 19 19 19 19 19 19 19 18 18 18 18 17 17 16 16 16 16 16 15 15 15 15 15 15 15 15 14 13 13
24 23 22 22 21 21 20 20 20 20 19 20 20 19 19 19 19 19 19 18 18 18 18 18 18 18 17 16 16 16 15 15 15 14 14 15 15 15 15 15 14 13 13
23 23 22 22 21 21 20 20 20 19 19 19 19 19 19 19 19 19 18 18 18 18 18 18 17 17 16 17 16 16 15 15 15 14 13 14 14 14 14 14 13 12 12
22 22 21 21 20 20 20 19 19 19 19 19 19 19 19 19 19 18 18 18 18 18 18 18 18 17 16 16 16 15 15 14 14 14 13 12 12 13 13 13 13 14 14
22 21 21 20 20 20 19 19 19 19 19 19 19 19 19 19 18 18 18 18 18 18 18 18 18 17 17 16 15 15 15 15 14 13 13 12 11 11 12 13 13 13 13
22 21 21 20 20 20 19 19 19 19 19 18 18 18 18 18 18 18 17 17 17 17 18 17 17 17 17 16 15 15 14 14 14 14 12 11 11 11 11 11 11 12 13
22 22 21 20 20 20 19 19 18 18 18 18 18 18 18 17 17 17 17 17 16 17 17 17 17 16 16 16 15 14 14 14 14 14 12 12 11 10 11 11 13 13 13
23 23 22 21 20 20 19 19 18 18 17 17 16 17 17 17 17 17 17 15 15 15 16 16 16 16 16 15 14 13 13 13 14 14 14 14 10 11 12 13 14 14 14
24 23 23 22 21 20 19 19 18 18 17 17 16 16 16 16 16 16 15 15 14 15 15 15 16 16 16 15 14 13 13 13 13 13 13 12 12 11 13 14 13 14 13
23 23 23 22 21 21 20 19 19 18 18 17 17 16 15 15 15 15 15 15 14 14 14 15 15 16 16 15 14 14 13 13 13 13 13 13 13 10 12 13 13 13 12
21 21 21 20 20 20 20 19 19 18 18 18 17 16 15 15 15 15 15 15 14 13 14 14 15 15 16 16 14 13 13 13 13 13 11 12 11 10 9 11 11 10 10
19 19 20 19 20 19 19 19 18 18 17 16 15 15 15 14 14 14 14 14 13 13 12 13 14 14 15 15 13 13 12 13 12 12 11 10 9 9 9 9 9 7 8
21 20 20 19 18 19 19 18 18 18 17 15 15 15 15 14 14 14 14 14 14 13 12 12 12 12 14 14 12 11 11 12 11 11 11 8 7 7 7 7 8 8 6
20 20 20 20 19 19 18 17 17 17 16 16 15 17 14 14 14 14 14 13 13 13 12 12 9 11 11 11 11 10 10 11 10 11 10 8 8 7 7 6 6 6 6
17 19 20 19 17 17 17 15 15 15 15 16 17 17 16 14 13 13 14 13 12 11 11 11 9 8 8 9 10 10 9 10 9 9 9 8 7 7 6 6 5 5 5
14 16 17 16 13 14 15 14 14 15 15 15 15 17 16 16 14 13 13 14 13 12 12 11 10 10 8 8 9 9 8 9 8 8 8 7 7 7 6 6 5 5 5
12 13 13 11 12 12 13 13 14 14 14 14 14 15 16 15 14 13 14 14 13 12 11 11 10 10 8 9 8 8 7 7 8 7 7 7 7 6 6 5 5 5 5
11 11 11 11 12 12 12 13 13 14 14 14 14 13 13 13 13 12 13 13 12 12 11 11 11 10 7 8 9 8 6 6 7 7 7 7 6 6 6 5 6 5 5
10 10 10 10 10 11 11 11 11 11 11 12 12 12 12 12 12 12 11 12 11 11 11 11 10 9 6 8 7 8 6 5 5 6 6 6 6 6 6 5 5 5 4
9 9 10 10 10 10 10 10 10 11 10 9 9 9 10 10 10 11 11 10 10 10 10 10 10 9 7 7 7 7 7 7 5 4 5 6 6 6 5 5 4 4 4
8 8 9 9 9 9 9 9 9 10 11 10 10 9 9 10 10 10 10 10 10 10 10 10 9 8 7 7 6 6 7 7 5 5 2 4 5 5 5 5 4 4 3
8 8 8 8 9 9 9 8 9 9 9 10 10 10 10 9 9 10 10 9 9 9 9 9 9 8 8 8 7 6 7 5 5 5 4 4 5 4 4 4 3 3 3
Height
1496 1499 1504 1507 1510 1513 1516 1519 1522 1524 1526 1528 1530 1533 1535 1537 1539 1540 1542 1543 1545 1546 1547 1548 1550 1551 1551 1551 1551 1552 1553 1554 1555 1556 1557 1559 1559 1560 1561 1562 1563 1563 1564
1496 1498 1503 1507 1510 1513 1516 1519 1521 1524 1526 1528 1530 1532 1534 1536 1539 1540 1542 1543 1545 1548 1549 1550 1550 1551 1553 1554 1554 1553 1554 1555 1555 1555 1557 1558 1560 1562 1562 1564 1566 1565 1566
1497 1498 1502 1506 1509 1512 1515 1519 1522 1524 1526 1528 1530 1532 1534 1536 1538 1539 1541 1543 1545 1547 1549 1552 1552 1552 1553 1554 1556 1557 1556 1556 1556 1556 1557 1558 1560 1561 1564 1567 1567 1566 1567
1499 1499 1501 1505 1508 1511 1514 1517 1520 1522 1524 1526 1528 1530 1533 1535 1537 1539 1541 1543 1546 1548 1550 1551 1552 1554 1554 1555 1556 1557 1559 1559 1558 1558 1557 1557 1560 1562 1563 1566 1566 1568 1570
1499 1500 1502 1505 1508 1510 1513 1516 1519 1521 1523 1525 1527 1530 1531 1533 1536 1537 1538 1541 1543 1545 1548 1551 1553 1554 1555 1556 1557 1558 1559 1560 1561 1560 1560 1559 1560 1561 1562 1564 1566 1568 1569
1499 1501 1502 1504 1507 1509 1511 1514 1517 1520 1523 1525 1527 1528 1530 1532 1534 1534 1537 1540 1543 1545 1547 1549 1551 1552 1555 1556 1559 1560 1562 1561 1563 1563 1562 1562 1561 1562 1563 1564 1565 1567 1568
1498 1499 1500 1502 1505 1509 1511 1514 1516 1518 1520 1523 1525 1527 1529 1531 1531 1531 1533 1536 1538 1541 1545 1548 1551 1554 1555 1554 1557 1559 1562 1564 1564 1563 1564 1564 1563 1563 1564 1565 1565 1565 1566
1499 1499 1500 1502 1504 1507 1510 1512 1514 1516 1518 1521 1523 1525 1528 1530 1531 1531 1533 1535 1538 1540 1542 1545 1547 1548 1553 1556 1557 1558 1559 1563 1566 1565 1566 1566 1564 1564 1564 1565 1565 1564 1565
1498 1500 1500 1501 1503 1505 1507 1510 1512 1514 1516 1518 1520 1523 1526 1529 1530 1532 1534 1535 1536 1539 1540 1541 1543 1546 1547 1550 1554 1558 1559 1559 1563 1566 1566 1565 1565 1564 1564 1564 1565 1566 1566
1497 1498 1499 1499 1500 1502 1503 1505 1508 1510 1513 1516 1519 1521 1524 1527 1530 1530 1532 1534 1536 1538 1538 1540 1542 1543 1545 1546 1550 1555 1558 1559 1559 1562 1567 1565 1564 1563 1562 1564 1565 1565 1566
1494 1495 1495 1496 1497 1497 1499 1501 1504 1507 1510 1513 1516 1519 1522 1524 1526 1528 1530 1532 1534 1535 1537 1538 1541 1542 1544 1546 1549 1552 1556 1558 1559 1560 1562 1563 1564 1565 1562 1562 1564 1565 1565
1490 1490 1491 1493 1494 1496 1498 1499 1501 1504 1507 1510 1512 1515 1517 1518 1520 1522 1524 1528 1532 1535 1535 1536 1537 1540 1542 1544 1547 1552 1554 1556 1557 1559 1559 1560 1563 1564 1563 1562 1563 1564 1565
1487 1487 1488 1488 1489 1491 1492 1494 1496 1498 1501 1503 1507 1510 1512 1514 1516 1520 1522 1524 1527 1530 1531 1533 1532 1536 1538 1540 1543 1546 1549 1554 1556 1557 1558 1559 1561 1562 1563 1563 1564 1563 1564
1483 1483 1483 1484 1485 1486 1488 1489 1490 1492 1495 1497 1498 1503 1507 1510 1512 1514 1516 1519 1521 1523 1525 1530 1530 1531 1534 1536 1540 1542 1546 1548 1553 1556 1556 1558 1559 1561 1562 1563 1565 1564 1564
1478 1479 1480 1479 1480 1481 1481 1482 1483 1485 1488 1490 1493 1497 1501 1503 1506 1508 1511 1511 1514 1516 1518 1521 1525 1527 1528 1532 1535 1538 1540 1544 1547 1551 1554 1557 1557 1559 1561 1562 1564 1565 1565
1471 1473 1474 1475 1476 1478 1478 1478 1480 1481 1483 1485 1488 1492 1495 1497 1500 1502 1505 1506 1509 1513 1515 1518 1521 1522 1524 1527 1530 1534 1538 1539 1544 1547 1550 1554 1556 1556 1558 1561 1563 1567 1567
1467 1468 1467 1467 1469 1470 1471 1472 1474 1475 1477 1480 1483 1485 1489 1494 1493 1496 1499 1501 1503 1506 1509 1514 1519 1524 1522 1522 1527 1530 1535 1536 1541 1545 1547 1550 1555 1556 1556 1559 1561 1564 1567
1462 1461 1460 1459 1459 1461 1463 1465 1466 1467 1469 1472 1473 1479 1481 1483 1487 1491 1494 1495 1498 1494 1490 1510 1508 1518 1521 1522 1524 1529 1531 1532 1537 1541 1545 1547 1551 1555 1555 1557 1560 1563 1567
1458 1455 1453 1452 1452 1453 1454 1456 1458 1460 1462 1466 1467 1471 1475 1478 1481 1482 1485 1488 1490 1491 1499 1502 1507 1516 1517 1520 1526 1532 1533 1528 1535 1536 1541 1545 1548 1552 1553 1555 1558 1561 1565
1457 1454 1451 1450 1450 1450 1449 1450 1452 1454 1456 1458 1461 1466 1468 1471 1474 1477 1480 1482 1486 1491 1492 1498 1502 1509 1511 1518 1520 1526 1529 1527 1533 1535 1537 1541 1545 1549 1552 1551 1554 1558 1563
1457 1453 1450 1449 1450 1450 1449 1449 1448 1448 1451 1453 1457 1461 1464 1467 1468 1470 1473 1476 1477 1483 1487 1489 1495 1499 1504 1507 1520 1521 1522 1529 1526 1532 1534 1537 1540 1545 1550 1552 1553 1556 1560
1460 1458 1455 1452 1452 1451 1450 1447 1446 1445 1446 1446 1450 1454 1458 1461 1462 1465 1466 1467 1471 1474 1481 1485 1487 1488 1499 1502 1505 1512 1520 1523 1523 1524 1531 1532 1534 1540 1545 1548 1550 1553 1557
1463 1460 1458 1456 1454 1454 1452 1451 1448 1443 1441 1442 1444 1447 1448 1452 1455 1458 1458 1460 1462 1466 1471 1476 1477 1477 1487 1490 1491 1496 1505 1513 1513 1517 1522 1525 1528 1534 1539 1542 1548 1550 1554
1464 1463 1460 1459 1455 1454 1451 1449 1448 1445 1443 1443 1444 1442 1444 1445 1449 1450 1450 1453 1456 1458 1461 1464 1470 1471 1478 1479 1486 1488 1494 1495 1499 1510 1514 1519 1523 1527 1532 1536 1541 1547 1552
1467 1464 1461 1457 1456 1453 1450 1448 1446 1444 1443 1443 1442 1442 1440 1446 1445 1445 1445 1447 1449 1451 1453 1456 1461 1465 1468 1471 1481 1481 1486 1492 1500 1499 1506 1510 1517 1523 1528 1529 1535 1541 1548
1465 1462 1458 1456 1453 1451 1447 1444 1444 1442 1440 1439 1437 1437 1438 1437 1445 1440 1441 1443 1442 1441 1446 1450 1452 1455 1457 1466 1469 1473 1479 1487 1489 1492 1499 1507 1507 1513 1525 1524 1529 1538 1543
Wind_Speed
18 16 22 25 26 25 24 22 22 23 22 29 28 26 23 22 19 15 15 17 18 18 18 17 16 14 13 13 14 15 15 15 15 15 15 16 15 15 15 14 15 15 15
14 17 23 25 26 25 24 23 22 22 26 28 29 27 24 23 19 15 15 16 16 17 16 15 14 13 13 13 14 15 15 15 15 15 15 16 16 16 15 15 15 16 15
12 17 22 25 27 26 26 24 24 24 26 28 28 26 24 23 19 16 16 15 15 16 15 14 14 14 14 13 13 14 14 14 14 14 14 16 16 16 16 14 14 14 15
10 15 21 25 27 28 27 26 25 26 27 28 28 26 24 22 20 17 16 14 15 15 15 16 15 14 15 14 14 14 13 13 12 13 14 16 16 15 16 16 14 14 13
12 15 20 25 28 29 28 27 26 26 27 26 26 25 24 23 20 18 17 15 16 17 16 16 15 15 14 14 14 13 12 12 11 12 13 15 16 16 15 15 16 16 14
12 16 21 25 28 30 30 28 27 26 26 25 25 25 25 23 21 20 18 16 17 17 16 16 17 16 15 14 14 13 12 12 11 12 12 12 14 15 14 14 14 15 15
16 18 22 26 29 30 30 29 28 27 27 26 26 25 26 24 23 22 20 18 18 18 18 18 17 15 15 16 15 15 13 12 13 13 11 11 13 15 15 14 14 15 14
17 18 23 27 30 31 31 30 30 29 28 27 27 27 27 26 25 24 21 19 19 18 19 20 19 18 17 17 17 18 16 14 14 12 11 10 13 14 14 13 13 13 12
18 20 23 27 30 32 31 31 31 30 30 30 29 29 28 27 26 24 23 22 20 19 20 21 21 21 21 20 20 20 19 17 14 12 10 10 12 13 14 14 13 13 12
18 20 21 25 28 32 34 34 33 33 32 32 31 30 30 29 28 27 25 23 20 20 22 22 23 23 23 23 23 23 22 18 15 12 11 11 11 14 15 14 13 13 12
20 23 24 26 29 32 34 36 35 34 33 33 33 32 32 32 31 29 29 27 23 22 23 24 24 24 24 24 25 25 22 20 16 14 13 11 12 14 16 16 13 11 10
23 25 27 28 29 30 34 36 37 36 36 36 36 35 36 36 35 34 33 29 24 23 25 26 26 26 26 26 27 25 24 21 18 16 14 9 16 15 13 13 11 11 10
23 28 28 30 30 31 34 37 38 39 39 39 39 39 40 39 37 35 34 31 29 27 29 30 29 30 30 31 31 31 27 23 20 18 14 11 14 14 12 12 11 11 11
29 28 29 30 31 31 33 36 38 39 40 42 43 43 42 42 40 40 40 38 36 34 34 33 33 33 33 33 33 31 29 27 23 19 15 12 16 16 13 11 11 11 12
31 32 33 32 33 34 34 36 38 39 41 42 42 44 45 45 44 43 43 43 42 40 38 38 38 37 36 35 35 34 33 29 26 22 18 17 18 19 16 13 13 13 14
28 32 34 36 35 34 37 37 39 38 40 40 40 41 45 45 46 45 45 45 44 41 39 38 38 38 37 36 38 37 36 32 29 25 22 20 19 19 17 17 16 15 15
22 32 35 36 38 38 39 39 40 40 39 38 39 39 41 43 44 44 45 47 48 45 41 37 37 38 39 39 40 40 38 34 30 28 24 22 21 21 20 19 18 17 17
18 23 26 29 32 36 39 41 42 43 41 38 39 38 40 41 41 40 42 48 49 45 27 40 38 41 41 39 41 41 39 35 32 30 26 23 25 24 21 20 19 19 19
16 19 22 25 24 27 30 35 40 41 42 39 37 36 36 37 38 40 41 44 49 42 35 39 37 37 37 36 36 38 39 36 34 32 28 26 26 27 24 22 20 20 20
11 11 13 16 16 20 24 29 35 39 40 39 39 35 35 34 36 38 41 35 37 39 37 36 40 37 34 41 41 39 37 37 34 32 31 30 28 26 24 22 22 20 20
18 13 11 12 11 12 19 23 30 35 37 37 35 34 35 32 32 33 34 33 31 36 37 33 38 35 46 44 39 39 36 37 36 37 34 32 30 29 25 22 20 22 21
20 20 23 19 16 11 13 17 20 26 30 33 35 33 31 31 30 30 31 30 30 34 35 38 40 43 47 48 44 45 35 36 40 40 39 35 33 31 27 26 23 23 25
21 20 20 19 19 20 21 17 9 4 8 16 16 23 25 25 27 31 25 27 25 29 33 35 43 48 49 54 52 41 26 18 38 44 43 39 35 32 31 29 26 24 27
18 14 11 12 13 14 13 12 15 15 12 15 9 5 8 12 21 22 21 18 24 27 33 35 39 48 52 53 50 48 45 41 32 25 40 42 37 36 34 33 30 27 29
21 19 16 15 14 14 14 11 9 11 11 9 10 11 13 10 9 13 19 23 22 28 30 34 39 45 54 48 53 54 46 40 37 35 31 38 41 42 38 35 32 31 32
27 28 28 28 22 19 16 14 14 13 12 14 14 16 19 16 18 14 12 18 23 21 29 33 42 49 52 36 40 57 56 52 50 43 41 42 44 40 41 37 34 32 35
Wind_Direction
193 195 189 187 187 187 187 187 188 185 186 179 179 180 176 171 172 167 164 161 161 158 161 161 158 160 155 154 150 144 138 135 131 125 117 113 113 112 113 115 118 117 118
190 188 187 186 188 190 189 189 188 186 184 182 183 182 179 179 180 176 173 169 168 167 169 165 165 167 165 162 154 147 142 139 134 129 125 119 118 118 118 122 123 121 122
193 191 184 187 188 192 189 187 185 186 183 183 185 185 184 184 184 181 178 177 176 176 176 173 174 174 169 169 158 151 146 143 137 134 131 126 123 122 123 123 121 123 127
193 194 190 189 189 193 193 191 191 188 187 186 188 189 189 189 187 184 182 180 182 183 181 179 180 181 175 174 164 156 156 152 146 138 140 135 133 136 136 127 122 121 125
192 197 199 194 193 196 198 198 198 195 193 193 194 195 195 193 191 187 185 186 188 187 187 186 186 187 183 179 172 163 164 163 158 147 141 136 138 139 139 137 132 136 133
196 198 203 202 200 201 203 205 205 202 200 200 199 199 200 197 193 190 191 191 192 193 191 192 194 192 191 187 180 174 178 173 169 156 152 152 149 150 147 145 138 126 128
197 196 202 206 206 206 209 211 211 209 208 206 204 205 205 202 199 198 196 197 200 199 197 197 198 197 197 196 189 184 188 185 181 171 163 159 154 155 155 151 146 138 145
206 200 204 206 211 213 214 217 217 215 214 212 211 212 210 208 206 204 203 206 206 205 200 200 201 198 203 206 195 192 189 189 190 184 166 157 158 162 159 157 157 158 161
208 206 207 210 214 218 220 221 221 221 220 219 219 217 214 214 210 211 211 212 214 209 209 206 204 203 202 202 199 197 195 187 193 192 181 167 168 155 160 164 165 165 168
215 213 214 215 217 219 221 223 224 224 224 224 224 222 220 219 217 215 215 217 219 216 214 211 208 207 206 200 198 197 196 189 194 197 180 168 171 165 161 155 162 173 176
228 224 223 222 220 220 221 222 223 225 227 227 227 225 223 219 216 218 220 220 215 214 214 211 211 209 207 200 197 195 195 197 196 195 177 173 163 161 159 167 175 178 181
247 241 232 229 228 227 225 224 223 223 225 226 227 226 223 221 220 218 221 220 217 215 212 211 210 211 208 200 196 196 200 200 196 191 185 169 163 167 168 168 170 171 166
264 250 246 239 233 231 229 227 225 224 223 226 228 228 226 224 220 220 222 222 222 213 210 208 205 210 209 206 199 197 200 200 199 189 183 169 172 172 174 167 162 152 150
263 257 253 249 244 242 238 235 230 227 226 226 227 228 226 225 223 222 226 229 228 218 210 211 210 210 212 210 207 203 202 200 196 188 180 178 168 164 168 167 159 148 141
262 257 259 254 248 245 241 240 236 231 230 229 229 229 229 228 227 228 227 230 231 224 213 212 212 213 214 211 208 206 201 199 197 191 178 172 168 166 165 161 148 146 142
262 259 263 264 259 251 248 246 242 239 235 232 232 232 234 232 228 228 229 232 232 229 220 215 217 216 216 211 208 204 202 199 196 190 177 168 169 169 165 155 150 147 143
274 266 261 262 263 260 254 249 247 246 240 237 232 237 239 237 232 239 236 239 238 235 226 220 218 220 218 212 207 203 200 196 193 187 179 168 166 166 164 162 156 154 148
283 271 262 258 256 256 256 253 249 247 242 241 238 241 241 237 237 244 248 242 243 238 239 240 216 218 218 214 206 204 199 195 191 187 179 170 167 172 166 162 156 153 147
298 285 273 263 260 261 258 252 249 247 246 247 246 245 244 243 241 242 247 251 248 241 243 226 220 219 212 210 208 202 198 192 191 185 181 175 173 178 175 165 158 153 149
353 331 302 277 263 262 261 254 251 245 247 248 251 249 250 247 244 243 248 255 262 244 237 234 226 219 218 214 206 209 198 192 189 186 182 181 178 179 178 172 164 153 154
40 21 5 353 314 276 266 263 255 251 251 246 250 257 255 251 243 245 248 251 254 253 247 228 215 227 212 209 209 194 192 193 191 190 187 185 181 184 179 172 163 157 155
45 47 46 45 19 313 277 257 251 245 246 240 247 248 248 254 250 245 243 246 252 245 244 235 230 228 213 207 197 204 185 189 190 193 191 188 186 187 188 185 176 164 161
34 32 35 37 39 32 31 1 306 242 221 223 237 242 244 247 248 243 249 251 252 250 248 251 245 221 202 205 210 192 171 193 182 183 188 190 190 191 192 189 184 177 170
20 22 23 16 8 1 8 0 355 0 1 357 338 334 291 254 243 243 234 246 249 250 251 249 236 223 219 216 200 202 205 193 173 180 180 186 193 193 191 188 187 183 182
360 356 347 340 335 336 340 339 331 325 321 302 310 321 321 308 313 279 245 243 236 245 243 245 242 225 217 213 211 202 208 206 198 184 176 175 180 186 192 191 190 188 189
346 342 341 339 328 319 313 313 306 296 296 294 293 287 286 296 279 286 276 254 250 242 246 249 254 233 223 218 224 218 209 206 195 190 182 184 180 180 183 187 188 192 192